Weather History for Oceanside, CA

Change the Weather History Date:

Thursday, January 24, 2013

  Actual Average Record
Temperature  
Mean Temperature 63 °F 54 °F  
Max Temperature 71 °F 66 °F 77 °F (2000)
Min Temperature 54 °F 41 °F 30 °F (2002)
Degree Days  
Heating Degree Days 2 12  
Month to date heating degree days 346 293  
Since 1 July heating degree days 941 1027  
Cooling Degree Days 0 0  
Month to date cooling degree days 0 0  
Year to date cooling degree days 0 0  
Growing Degree Days 12 (Base 50)    
Moisture  
Dew Point 50 °F    
Average Humidity 65    
Maximum Humidity 77    
Minimum Humidity 53    
Precipitation  
Precipitation 0.03 in 0.05 in 0.09 in (2013)
Month to date precipitation 0.40 2.26  
Year to date precipitation 0.40 2.26  
Since 1 July precipitation 4.24 6.65  
Snow  
Snow 0.00 in - - ()
Month to date snowfall 0.0  
Year to date snowfall 0.0  
Since 1 July snowfall 0.0  
Snow Depth 0.00 in    
Sea Level Pressure  
Sea Level Pressure 30.12 in    
Wind  
Wind Speed 3 mph (NE)    
Max Wind Speed 9 mph    
Max Gust Speed 12 mph    
Visibility 10 miles    
Events Rain    
T = Trace of Precipitation, MM = Missing Value Source: NWS Daily Summary

Daily Weather History Graph

Daily Weather History Graph

Search for Another Location

Airport:

Trip Planner

Search our weather history database for the weather conditions in past years. The results will help you decide how hot, cold, wet, or windy it might be!

Date:

Astronomy

Jan. 24, 2013 Rise Set
Actual Time 6:49 AM PST 5:13 PM PST
Civil Twilight 6:23 AM PST 5:40 PM PST
Nautical Twilight 5:53 AM PST 6:10 PM PST
Astronomical Twilight 5:23 AM PST 6:39 PM PST
Moon 3:21 PM PST (1/24) 4:48 AM PST (1/24)
Length of Visible Light 11h 17m
Length of Day
10h 24m
Waxing Gibbous, 95% of the Moon is Illuminated
Jan 24
Waxing Gibbous
Jan 26
Full
Feb 3
Last Quarter
Feb 9
New
Feb 17
First Quarter

Hourly Weather History & Observations

Time (PST) Temp. Dew Point Humidity Pressure Visibility Wind Dir Wind Speed Gust Speed Precip Events Conditions
12:52 AM 57.0 °F 44.1 °F 62% 30.12 in 10.0 mi NE 5.8 mph - 0.00 in   Overcast
1:52 AM 57.9 °F 43.0 °F 58% 30.10 in 10.0 mi Calm Calm - N/A   Overcast
2:52 AM 57.0 °F 45.0 °F 64% 30.09 in 10.0 mi Calm Calm - 0.00 in Rain Light Rain
3:52 AM 55.0 °F 48.0 °F 77% 30.09 in 10.0 mi ENE 3.5 mph - 0.00 in   Overcast
4:52 AM 57.0 °F 45.0 °F 64% 30.10 in 10.0 mi Calm Calm - 0.00 in Rain Light Rain
5:52 AM 57.0 °F 45.0 °F 64% 30.11 in 10.0 mi ENE 3.5 mph - 0.00 in   Overcast
6:52 AM 55.9 °F 46.9 °F 72% 30.11 in 10.0 mi NE 5.8 mph - 0.01 in Rain Light Rain
7:52 AM 55.9 °F 48.0 °F 75% 30.14 in 9.0 mi Variable 4.6 mph - 0.00 in Rain Light Rain
8:52 AM 57.0 °F 50.0 °F 77% 30.16 in 10.0 mi Calm Calm - 0.02 in Rain Light Rain
9:52 AM 59.0 °F 50.0 °F 72% 30.19 in 10.0 mi Calm Calm - 0.00 in   Overcast
10:52 AM 62.1 °F 53.1 °F 72% 30.19 in 10.0 mi ENE 4.6 mph - N/A   Overcast
11:52 AM 64.9 °F 52.0 °F 63% 30.15 in 10.0 mi East 8.1 mph - N/A   Mostly Cloudy
12:52 PM 66.0 °F 53.1 °F 63% 30.12 in 10.0 mi ENE 5.8 mph - 0.00 in   Mostly Cloudy
1:52 PM 66.9 °F 53.1 °F 61% 30.11 in 10.0 mi East 3.5 mph - N/A   Partly Cloudy
2:52 PM 70.0 °F 52.0 °F 53% 30.08 in 10.0 mi Calm Calm - N/A   Clear
3:52 PM 70.0 °F 53.1 °F 55% 30.09 in 10.0 mi WSW 8.1 mph - N/A   Clear
4:52 PM 66.0 °F 52.0 °F 60% 30.10 in 10.0 mi West 3.5 mph - N/A   Clear
5:52 PM 63.0 °F 52.0 °F 67% 30.10 in 10.0 mi NW 3.5 mph - N/A   Scattered Clouds
6:52 PM 60.1 °F 52.0 °F 75% 30.11 in 10.0 mi Calm Calm - N/A   Mostly Cloudy
7:52 PM 59.0 °F 51.1 °F 75% 30.11 in 10.0 mi Calm Calm - N/A   Partly Cloudy
8:52 PM 59.0 °F 52.0 °F 78% 30.13 in 10.0 mi Calm Calm - 0.00 in Rain Light Rain
9:52 PM 57.9 °F 54.0 °F 87% 30.11 in 9.0 mi NE 5.8 mph - 0.05 in Rain Light Rain
10:52 PM 57.9 °F 55.0 °F 90% 30.08 in 10.0 mi East 5.8 mph - 0.01 in   Mostly Cloudy
11:52 PM 60.1 °F 55.9 °F 86% 30.08 in 10.0 mi Calm Calm - N/A   Mostly Cloudy